Date,TemperatureHighF,TemperatureAvgF,TemperatureLowF,DewpointHighF,DewpointAvgF,DewpointLowF,HumidityHigh,HumidityAvg,HumidityLow,PressureMaxIn,PressureMinIn,WindSpeedMaxMPH,WindSpeedAvgMPH,GustSpeedMaxMPH,PrecipitationSumIn
2013-4-1,60,46,34,48,35,14,93,69,33,29.92,29.63,22,6,28,0.03
2013-4-2,43,33,22,21,16,12,76,51,30,30.09,29.92,20,6,26,0.00
2013-4-3,46,35,24,19,14,10,66,43,28,30.32,30.09,18,6,25,0.00
2013-4-4,55,40,22,30,21,14,76,48,31,30.39,30.06,11,3,15,0.00
2013-4-5,63,48,31,31,25,19,83,45,21,30.06,29.74,21,6,28,0.00
2013-4-6,54,42,31,25,18,13,60,40,21,30.29,30.02,14,5,22,0.00
2013-4-7,64,51,34,43,36,24,79,59,40,30.28,29.97,12,4,19,0.00
2013-4-8,78,60,38,51,45,36,92,62,28,30.07,29.93,10,2,17,0.00
2013-4-9,82,67,48,55,46,37,92,55,20,29.96,29.86,20,4,29,0.00
2013-4-10,86,67,54,62,54,47,92,67,38,29.92,29.76,21,3,31,0.76
2013-4-11,60,55,47,57,51,43,92,87,74,29.98,29.75,11,4,17,0.01
2013-4-12,47,43,41,43,41,39,93,90,78,29.95,29.70,14,5,22,0.42
2013-4-13,58,47,36,42,38,34,93,73,47,29.96,29.74,14,3,18,0.10
2013-4-14,60,49,37,41,35,30,92,63,35,30.18,29.95,16,4,21,0.00
2013-4-15,62,50,39,44,36,30,82,58,45,30.34,30.18,11,3,15,0.00
2013-4-16,70,58,46,59,50,37,88,74,62,30.33,30.08,9,3,13,0.00
2013-4-17,75,61,50,57,44,33,91,58,23,30.26,30.09,11,3,15,0.00
2013-4-18,57,51,41,52,46,38,92,82,64,30.29,30.05,11,4,17,0.00
2013-4-19,78,65,54,68,60,50,92,85,65,30.05,29.57,20,4,31,0.83
2013-4-20,57,50,41,51,36,24,91,61,38,30.31,29.69,18,8,24,0.10
2013-4-21,58,44,33,32,26,20,75,50,28,30.60,30.31,13,4,18,0.00
2013-4-22,56,43,29,38,33,27,92,69,47,30.62,30.46,13,3,18,0.00
2013-4-23,50,43,35,42,37,32,92,78,67,30.46,30.12,7,3,12,0.00
2013-4-24,73,54,31,56,46,29,93,76,52,30.12,29.78,9,2,16,0.00
2013-4-25,64,52,37,56,34,25,83,52,26,30.25,29.84,19,6,27,0.00
2013-4-26,67,49,30,40,32,24,92,59,20,30.40,30.25,13,3,16,0.00
2013-4-27,71,52,31,41,35,28,92,57,26,30.42,30.24,10,1,20,0.00
2013-4-28,72,56,35,48,39,32,92,58,34,30.29,30.15,9,2,14,0.00
2013-4-29,54,52,50,50,49,39,92,89,56,30.21,30.13,13,3,17,0.13
2013-4-30,67,56,40,52,43,23,92,67,26,30.31,30.17,11,2,15,0.00